Anchorage Merrill, AK

12:50 PM AKDT on July 27, 2017 (GMT -0800)
Merrill

Weather History for PAMR - May, 2012

Change the Weather History Date:

Friday, May 4, 2012

  Actual Average Record
Temperature  
Mean Temperature 40 °F -  
Max Temperature 48 °F 51 °F 64 °F (2004)
Min Temperature 33 °F 34 °F 28 °F (2001)
Degree Days  
Heating Degree Days 24    
Moisture  
Dew Point 28 °F    
Average Humidity 58    
Maximum Humidity 75    
Minimum Humidity 44    
Precipitation  
Precipitation 0.00 in - - ()
Sea Level Pressure  
Sea Level Pressure 29.80 in    
Wind  
Wind Speed 2 mph (NW)    
Max Wind Speed 9 mph    
Max Gust Speed -    
Visibility 10 miles    
Events      
Averages and records for this station are not official NWS values.
T = Trace of Precipitation, MM = Missing Value Source: NWS Daily Summary

Daily Weather History Graph

Daily Weather History Graph

Search for Another Location

Airport or City:

Trip Planner

Search our weather history database for the weather conditions in past years. The results will help you decide how hot, cold, wet, or windy it might be!

Date:

Astronomy

May. 04, 2012 Rise Set
Actual Time 5:40 AM AKDT 10:14 PM AKDT
Civil Twilight 4:40 AM AKDT 11:14 PM AKDT
Nautical Twilight 2:46 AM AKDT 1:18 AM AKDT
Astronomical Twilight Sun does not set Sun does not set
Moon 8:56 PM AKDT (5/4) 4:51 AM AKDT (5/4)
Length of Visible Light 18h 34m
Length of Day
16h 34m
Waxing Gibbous, 97% of the Moon is Illuminated
May 4
Waxing Gibbous
May 5
Full
May 12
Last Quarter
May 20
New
May 28
First Quarter

Hourly Weather History & Observations

Time (AKDT) Temp. Windchill Dew Point Humidity Pressure Visibility Wind Dir Wind Speed Gust Speed Precip Events Conditions
12:53 AM 39.0 °F - 27.0 °F 62% 29.72 in 10.0 mi Calm Calm - N/A   Overcast
1:53 AM 37.9 °F - 27.0 °F 65% 29.73 in 10.0 mi Calm Calm - N/A   Overcast
2:53 AM 37.9 °F - 27.0 °F 65% 29.74 in 10.0 mi Calm Calm - N/A   Overcast
3:53 AM 36.0 °F - 27.0 °F 70% 29.75 in 10.0 mi Calm Calm - N/A   Overcast
4:53 AM 35.1 °F - 27.0 °F 72% 29.75 in 10.0 mi Calm Calm - N/A   Mostly Cloudy
5:53 AM 33.1 °F - 26.1 °F 75% 29.76 in 10.0 mi Calm Calm - N/A   Overcast
6:53 AM 34.0 °F - 27.0 °F 75% 29.76 in 10.0 mi Calm Calm - N/A   Overcast
7:53 AM 37.0 °F - 27.0 °F 67% 29.78 in 10.0 mi Calm Calm - N/A   Overcast
8:53 AM 39.0 °F - 28.0 °F 65% 29.79 in 10.0 mi Calm Calm - N/A   Overcast
9:53 AM 41.0 °F 39.0 °F 27.0 °F 57% 29.79 in 10.0 mi NW 3.5 mph - N/A   Mostly Cloudy
10:53 AM 43.0 °F 40.3 °F 28.9 °F 58% 29.80 in 10.0 mi West 4.6 mph - N/A   Mostly Cloudy
11:53 AM 44.1 °F 41.5 °F 28.9 °F 55% 29.80 in 10.0 mi WNW 4.6 mph - N/A   Overcast
12:53 PM 46.0 °F 42.5 °F 28.0 °F 50% 29.80 in 10.0 mi WNW 6.9 mph - N/A   Mostly Cloudy
1:53 PM 46.0 °F 42.5 °F 25.0 °F 44% 29.80 in 10.0 mi WNW 6.9 mph - N/A   Mostly Cloudy
2:53 PM 48.0 °F - 27.0 °F 44% 29.81 in 10.0 mi West 9.2 mph - 0.00 in   Mostly Cloudy
3:53 PM 46.9 °F - 28.0 °F 48% 29.81 in 10.0 mi WNW 8.1 mph - N/A   Mostly Cloudy
4:53 PM 46.9 °F - 28.9 °F 50% 29.82 in 10.0 mi WNW 6.9 mph - N/A   Overcast
5:53 PM 46.0 °F 43.9 °F 27.0 °F 47% 29.82 in 10.0 mi WNW 4.6 mph - N/A   Scattered Clouds
6:53 PM 46.0 °F 43.1 °F 27.0 °F 47% 29.83 in 10.0 mi WNW 5.8 mph - N/A   Mostly Cloudy
7:53 PM 46.0 °F - 28.0 °F 50% 29.83 in 10.0 mi Calm Calm - N/A   Mostly Cloudy
8:53 PM 45.0 °F 41.8 °F 28.9 °F 53% 29.85 in 10.0 mi WNW 5.8 mph - N/A   Overcast
9:53 PM 44.1 °F 42.5 °F 28.9 °F 55% 29.86 in 10.0 mi NNW 3.5 mph - N/A   Mostly Cloudy
10:53 PM 43.0 °F 41.3 °F 30.0 °F 60% 29.87 in 10.0 mi NE 3.5 mph - N/A   Scattered Clouds
11:53 PM 39.9 °F - 30.0 °F 68% 29.87 in 10.0 mi Calm Calm - N/A   Mostly Cloudy